Regional Weather Roundup
Issued by NWS Sioux Falls, SD

Home | Current Version | Previous Version | Text Only | Print | Product List | Glossary On
Versions: 1 2 3 4 5 6 7 8 9 10 11 12 13 14 15 16 17 18 19 20 21 22 23 24 25 26 27 28 29 30 31 32 33 34 35 36 37 38 39 40 41 42 43 44 45 46 47 48 49 50
000
ASUS43 KFSD 270410
RWRFSD

WEATHER ROUNDUP FOR SE SOUTH DAKOTA/SW MINNESOTA/NW IOWA
NATIONAL WEATHER SERVICE SIOUX FALLS SD
1100 PM CDT THU MAR 26 2015

NOTE: "FAIR" INDICATES FEW OR NO CLOUDS BELOW 12,000 FEET WITH NO
SIGNIFICANT WEATHER AND OR OBSTRUCTIONS TO VISIBILITY.


SDZ038>040-050-052>070-270500-
SOUTHEAST SOUTH DAKOTA

CITY           SKY/WX    TMP DP  RH WIND       PRES   REMARKS
CHAMBERLAIN    MOCLDY    31  22  69 CALM      30.25S
HURON          CLEAR     21  12  68 NE7       30.27R WCI  12
MADISON        FAIR      19  16  86 N9        30.23S WCI   9
MITCHELL       CLEAR     24  15  68 NE6       30.27R WCI  17
SIOUX FALLS    PTCLDY    25  16  68 N10       30.24R WCI  15
WINNER         CLOUDY    33  29  85 SW3       30.24S
YANKTON        CLEAR     28  18  64 N8        30.26R WCI  20
$$

MNZ071-072-080-081-089-090-097-098-270500-
SOUTHWEST MINNESOTA

CITY           SKY/WX    TMP DP  RH WIND       PRES   REMARKS
FAIRMONT       CLEAR     27  18  69 NW9       30.19S WCI  17
JACKSON        CLEAR     23  18  80 NW7       30.20S WCI  15
LUVERNE        CLEAR     30  18  59 N8        30.24R WCI  23
MARSHALL       CLEAR     23  12  63 N10       30.25R WCI  12
MONTEVIDEO     CLEAR     25  18  74 N12       30.26R WCI  14
PIPESTONE      CLEAR     25  16  68 N5        30.22R WCI  19
REDWOOD FALLS  FAIR      27  15  61 N10       30.23R WCI  17
TRACY          CLEAR     25  17  73 N9        30.23S WCI  15
WINDOM         CLEAR     23  18  80 NW8       30.20S WCI  14
WORTHINGTON    CLEAR     19  12  73 NW6       30.22S WCI  11
$$

IAZ001>003-012>014-020>022-031-032-NEZ013-014-SDZ071-270500-
NORTHWEST IOWA

CITY           SKY/WX    TMP DP  RH WIND       PRES   REMARKS
CHEROKEE       CLEAR     28  19  68 N8        30.23R WCI  20
DENISON        CLOUDY    32  27  80 NE3G12    30.18S
ESTHERVILLE    MOCLDY    26  17  68 N13       30.20R WCI  15
LE MARS        PTCLDY    28  21  74 N7        30.24R WCI  21
ORANGE CITY    CLEAR     28  19  69 N7        30.22S WCI  21
SHELDON        CLEAR     23  19  86 N8        30.21S WCI  14
SIOUX CITY     MOCLDY    34  21  59 NE13      30.23R WCI  25
SPENCER        CLEAR     25  17  72 N8        30.21R WCI  16
STORM LAKE     PTCLDY    27  19  74 N13       30.21R WCI  16
$$

ABBREVIATIONS USED IN REMARKS
   TC - TEMPERATURE IN CELSIUS
  WCI - WIND CHILL INDEX
   HX - HEAT INDEX
  VSB - VISIBILITY



USA.gov is the U.S. government's official web portal to all federal, state and local government web resources and services.